sat.trackr.live / text

‹ back to catalog

STARLINK-37150

NORAD 68315 · 2026-057X

PAYLOAD ACTIVE UNKNOWN

§ Identity

Operator
Country
US
Launch date
2026-03-20
Launch site
AFWTR
Launch vehicle
Mass (kg)
RCS (m²)

Purposes: comms

External: N2YO · Heavens-Above · Gunter

§ Orbital elements

Epoch: 2026-09-19T02:32:37.166208Z

Period
93.91 min
Inclination
97.2851°
Eccentricity
0.0000129
Mean motion
15.33453949 rev/d
Perigee alt
465.4 km
Apogee alt
465.6 km
Semi-major
6,843.7 km
B*
6.4679e-4
RAAN
27.5785°
Arg perigee
103.3511°
Mean anomaly
256.7746°
Rev number
2,830

§ Raw data

STARLINK-371501 68315U 26057X   26262.10598572  .00020869  00000+0  64679-3 0  99972 68315  97.2851  27.5785 0000129 103.3511 256.7746 15.33453949 28303

JSON: /api/v1/satellites/68315 · /tle

For live sub-satellite position, see the globe view (requires WebGL).

§ Visibility from observer

Set your observer location to see the next 7 days of passes ≥ 10°. The values pass through the URL so the page stays shareable.

No JS? Fill the form by hand. The geolocation button needs JavaScript.